Huvudsida
METAR-TAF:

METAR-TAF

Flygplatser :

Sankt Michels flygplats

Sankt Michel, Finland

latitud: 61-44N, longitud: 027-18E, höjd: 138 m

Aktuellt väderrapport

Denna rapport gjordes för 44 minuter sedan, klockan 16:50 UTC
Vind 4 kt från väst
Temperatur -7°C
Fuktighet 86%
Tryck 993 hPa
Sikt: 8000 m
Mulet på en höjd av 2800 ft
lätt snö

METAR: EFMI 161650Z AUTO 27004KT 8000 -SN OVC028 M07/M09 Q0993

Tid: 19:34 (17:34 UTC)


TAF: saknas

Aktuella väderrapporter och prognoser från 4000 flygplatser (METAR- och TAF-rapporter).

De tillgängliga stationerna syns som gula och röda prickar på kartan.

För musen över prickarna för att se namnen på stationerna.

Klicka sedan för att få väderrapporter och prognoser.

För att ändra kartan: Klicka på de gröna knapparna med ett svart kors på för att zooma in; den gröna knappen med ett streck på för att zooma ut; eller på de gröna pilarna för angränsande kartor.


METAR-TAF: